When you browse on this site, cookies collect data to enhance your experience and personalize the content and advertising you see.
Visit our Privacy Policy to learn more. By continuing to use the site, you agree to this use of cookies and data.
  • In Hungary
  • List of Countries
  • For 7 days
  • Water Temperature
  • Weather Map
  • News
  • Weather Widgets
  • user-avatar
    Login

    Hourly Weather Aleksandrovskiy

    Today, 15 September, Sunday

    Time Temperature Precipitation Wind Pressure Humidity
    00:00 +5°C° 0 mm 3 mps 742 mmHg 91%
    01:00 +5°C° 0 mm 3 mps 742 mmHg 93%
    02:00 +4°C° 0 mm 3 mps 742 mmHg 94%
    03:00 +4°C° 0 mm 3 mps 742 mmHg 95%
    04:00 +4°C° 0 mm 3 mps 742 mmHg 96%
    05:00 +4°C° 0 mm 3 mps 742 mmHg 97%
    06:00 +5°C° 0 mm 3 mps 742 mmHg 92%
    07:00 +7°C° 0 mm 3 mps 742 mmHg 88%
    08:00 +8°C° 0 mm 3 mps 742 mmHg 83%
    09:00 +8°C° 0 mm 4 mps 742 mmHg 78%
    10:00 +10°C° 0 mm 4 mps 741 mmHg 73%
    11:00 +11°C° 0 mm 4 mps 741 mmHg 68%
    12:00 +11°C° 0 mm 4 mps 740 mmHg 69%
    13:00 +11°C° 0 mm 4 mps 740 mmHg 69%
    14:00 +10°C° 0 mm 4 mps 739 mmHg 69%
    15:00 +9°C° 0.2 mm 5 mps 738 mmHg 74%
    16:00 +8°C° 0.2 mm 5 mps 737 mmHg 79%
    17:00 +7°C° 0.2 mm 5 mps 736 mmHg 84%
    18:00 +7°C° 0.5 mm 5 mps 734 mmHg 87%
    19:00 +7°C° 0.5 mm 6 mps 733 mmHg 90%
    20:00 +7°C° 0.5 mm 6 mps 732 mmHg 93%
    21:00 +7°C° 0.9 mm 6 mps 731 mmHg 93%
    22:00 +7°C° 0.9 mm 6 mps 730 mmHg 93%
    23:00 +8°C° 0.9 mm 6 mps 729 mmHg 92%

    Tomorrow, 16 September, Monday

    Time Temperature Precipitation Wind Pressure Humidity
    00:00 +8°C° 0.1 mm 5 mps 728 mmHg 92%
    01:00 +7°C° 0.1 mm 5 mps 728 mmHg 92%
    02:00 +7°C° 0.1 mm 5 mps 728 mmHg 92%
    03:00 +7°C° 0 mm 5 mps 728 mmHg 93%
    04:00 +7°C° 0 mm 4 mps 727 mmHg 93%
    05:00 +6°C° 0 mm 4 mps 727 mmHg 94%
    06:00 +7°C° 0 mm 4 mps 727 mmHg 92%
    07:00 +7°C° 0 mm 4 mps 727 mmHg 91%
    08:00 +7°C° 0 mm 4 mps 727 mmHg 90%
    09:00 +8°C° 0.1 mm 5 mps 727 mmHg 87%
    10:00 +8°C° 0.1 mm 5 mps 727 mmHg 84%
    11:00 +9°C° 0.1 mm 5 mps 727 mmHg 82%
    12:00 +9°C° 0.1 mm 5 mps 726 mmHg 83%
    13:00 +9°C° 0.1 mm 5 mps 726 mmHg 84%
    14:00 +9°C° 0.1 mm 5 mps 726 mmHg 85%
    15:00 +9°C° 0.5 mm 5 mps 726 mmHg 86%
    16:00 +8°C° 0.5 mm 5 mps 726 mmHg 88%
    17:00 +8°C° 0.5 mm 4 mps 725 mmHg 90%
    18:00 +8°C° 0.1 mm 4 mps 725 mmHg 91%
    19:00 +7°C° 0.1 mm 4 mps 725 mmHg 92%
    20:00 +7°C° 0.1 mm 4 mps 725 mmHg 94%
    21:00 +7°C° 0 mm 4 mps 725 mmHg 94%
    22:00 +7°C° 0 mm 4 mps 725 mmHg 94%
    23:00 +6°C° 0 mm 4 mps 724 mmHg 94%

    Day after tomorrow, 17 September, Tuesday

    Time Temperature Precipitation Wind Pressure Humidity
    00:00 +6°C° 0.4 mm 4 mps 724 mmHg 93%
    01:00 +6°C° 0.4 mm 5 mps 724 mmHg 92%
    02:00 +6°C° 0.4 mm 5 mps 724 mmHg 92%
    03:00 +6°C° 0.7 mm 5 mps 724 mmHg 92%
    04:00 +6°C° 0.7 mm 5 mps 724 mmHg 93%
    05:00 +6°C° 0.7 mm 5 mps 724 mmHg 93%
    06:00 +6°C° 0.3 mm 5 mps 724 mmHg 92%
    07:00 +7°C° 0.3 mm 5 mps 724 mmHg 92%
    08:00 +7°C° 0.3 mm 5 mps 725 mmHg 91%
    09:00 +7°C° 0.1 mm 5 mps 725 mmHg 86%
    10:00 +8°C° 0.1 mm 5 mps 726 mmHg 82%
    11:00 +10°C° 0.1 mm 4 mps 726 mmHg 78%
    12:00 +10°C° 0.3 mm 4 mps 726 mmHg 78%
    13:00 +10°C° 0.3 mm 4 mps 727 mmHg 77%
    14:00 +10°C° 0.3 mm 4 mps 727 mmHg 77%
    15:00 +8°C° 0.2 mm 4 mps 727 mmHg 81%
    16:00 +9°C° 0.2 mm 3 mps 727 mmHg 84%
    17:00 +8°C° 0.2 mm 2 mps 727 mmHg 88%
    18:00 +8°C° 0.1 mm 2 mps 727 mmHg 90%
    19:00 +7°C° 0.1 mm 2 mps 728 mmHg 92%
    20:00 +6°C° 0.1 mm 2 mps 728 mmHg 94%
    21:00 +6°C° 0.1 mm 2 mps 728 mmHg 95%
    22:00 +6°C° 0.1 mm 2 mps 728 mmHg 95%
    23:00 +7°C° 0.1 mm 1 mps 728 mmHg 95%

    18 September, Wednesday

    Time Temperature Precipitation Wind Pressure Humidity
    00:00 +7°C° 0.1 mm 1 mps 728 mmHg 95%
    01:00 +7°C° 0.1 mm 1 mps 728 mmHg 96%
    02:00 +7°C° 0.1 mm 1 mps 728 mmHg 96%
    03:00 +6°C° 0 mm 1 mps 728 mmHg 96%
    04:00 +6°C° 0 mm 1 mps 728 mmHg 97%
    05:00 +4°C° 0 mm 2 mps 728 mmHg 97%
    06:00 +5°C° 0 mm 2 mps 729 mmHg 95%
    07:00 +5°C° 0 mm 2 mps 729 mmHg 93%
    08:00 +6°C° 0 mm 2 mps 729 mmHg 90%
    09:00 +7°C° 0.1 mm 2 mps 729 mmHg 85%
    10:00 +8°C° 0.1 mm 3 mps 730 mmHg 79%
    11:00 +9°C° 0.1 mm 3 mps 730 mmHg 73%
    12:00 +9°C° 0.2 mm 3 mps 731 mmHg 70%
    13:00 +10°C° 0.2 mm 3 mps 731 mmHg 68%
    14:00 +10°C° 0.2 mm 3 mps 731 mmHg 65%
    15:00 +9°C° 0.1 mm 3 mps 732 mmHg 69%
    16:00 +8°C° 0.1 mm 3 mps 732 mmHg 74%
    17:00 +7°C° 0.1 mm 2 mps 732 mmHg 78%
    18:00 +6°C° 0 mm 2 mps 733 mmHg 82%
    19:00 +5°C° 0 mm 2 mps 733 mmHg 86%
    20:00 +4°C° 0 mm 2 mps 734 mmHg 90%
    21:00 +4°C° 0 mm 2 mps 734 mmHg 91%
    22:00 +3°C° 0 mm 2 mps 735 mmHg 92%
    23:00 +2°C° 0 mm 2 mps 735 mmHg 93%

    19 September, Thursday

    Time Temperature Precipitation Wind Pressure Humidity
    00:00 +2°C° 0 mm 2 mps 736 mmHg 93%
    01:00 +2°C° 0 mm 2 mps 736 mmHg 94%
    02:00 +1°C° 0 mm 2 mps 736 mmHg 94%
    03:00 +1°C° 0 mm 2 mps 737 mmHg 94%
    04:00 +1°C° 0 mm 2 mps 737 mmHg 95%
    05:00 +1°C° 0 mm 2 mps 737 mmHg 95%
    06:00 +2°C° 0 mm 2 mps 738 mmHg 89%
    07:00 +3°C° 0 mm 2 mps 738 mmHg 83%
    08:00 +4°C° 0 mm 2 mps 739 mmHg 78%
    09:00 +5°C° 0 mm 2 mps 739 mmHg 70%
    10:00 +5°C° 0 mm 3 mps 739 mmHg 61%
    11:00 +7°C° 0 mm 3 mps 740 mmHg 53%
    12:00 +8°C° 0 mm 3 mps 740 mmHg 52%
    13:00 +8°C° 0 mm 3 mps 740 mmHg 50%
    14:00 +8°C° 0 mm 3 mps 740 mmHg 49%
    15:00 +7°C° 0.1 mm 3 mps 740 mmHg 57%
    16:00 +5°C° 0.1 mm 3 mps 740 mmHg 64%
    17:00 +6°C° 0.1 mm 2 mps 740 mmHg 72%
    18:00 +5°C° 0 mm 2 mps 740 mmHg 77%
    19:00 +4°C° 0 mm 2 mps 740 mmHg 82%
    20:00 +3°C° 0 mm 2 mps 741 mmHg 87%
    21:00 +2°C° 0 mm 2 mps 741 mmHg 89%
    22:00 +1°C° 0 mm 2 mps 741 mmHg 91%
    23:00 +1°C° 0 mm 2 mps 741 mmHg 93%

    20 September, Friday

    Time Temperature Precipitation Wind Pressure Humidity
    00:00 -1°C° 0 mm 2 mps 741 mmHg 94%
    01:00 -1°C° 0 mm 2 mps 741 mmHg 95%
    02:00 -1°C° 0 mm 2 mps 741 mmHg 96%
    03:00 -1°C° 0 mm 2 mps 741 mmHg 96%
    04:00 -2°C° 0 mm 3 mps 742 mmHg 96%
    05:00 -2°C° 0 mm 3 mps 742 mmHg 95%
    06:00 -1°C° 0 mm 3 mps 742 mmHg 91%
    07:00 -1°C° 0 mm 4 mps 742 mmHg 87%
    08:00 0°C° 0 mm 4 mps 742 mmHg 83%
    09:00 +1°C° 0 mm 4 mps 742 mmHg 80%
    10:00 +3°C° 0 mm 4 mps 743 mmHg 76%
    11:00 +3°C° 0 mm 4 mps 743 mmHg 73%
    12:00 +4°C° 0 mm 4 mps 743 mmHg 72%
    13:00 +4°C° 0 mm 4 mps 743 mmHg 71%
    14:00 +4°C° 0 mm 4 mps 743 mmHg 70%
    15:00 +4°C° 0 mm 4 mps 743 mmHg 72%
    16:00 +4°C° 0 mm 3 mps 743 mmHg 75%
    17:00 +4°C° 0 mm 2 mps 743 mmHg 78%
    18:00 +3°C° 0 mm 2 mps 743 mmHg 82%
    19:00 +2°C° 0 mm 2 mps 743 mmHg 87%
    20:00 +1°C° 0 mm 2 mps 743 mmHg 91%
    21:00 +1°C° 0 mm 2 mps 743 mmHg 92%
    22:00 -1°C° 0 mm 2 mps 742 mmHg 92%
    23:00 -1°C° 0 mm 2 mps 742 mmHg 93%
    Show more